STARLINK-35810, 66575

Orbit data source: Space-Track

STARLINK-35810, 66575 is a payload satellite owned by SpaceX/Seattle (US) in LEO that was launched on Fri, 21 Nov 2025 UTC via an FALCON 9 launch vehicle from the Air Force Eastern Test Range (AFETR). Payload-class satellites include a variety of spacecraft equipped with specific instruments for various scientific and technological missions. These include communications satellites like Starlink; space stations such as the ISS; scientific satellites like the Hubble; Earth observation satellites from companies like Planet Labs, Umbra, and HawkEye 360; GPS; miniature CubeSats for education and research; and military/defense satellites.

Loading next visibility...
Identifier
66575, 2025-268U
Orbit
LEO
Country
Flag of USUS
Related business
Manufacturer
SpaceX/Seattle
Mission
Operational Commercial Communications
Bus & Motor
STARLINK V2MO, Unknown motor
Mass
575 kg wet, ~530 kg dry
Launch date (UTC)
2025-11-21 (7 months ago)
Launch vehicle
FALCON 9
Launch site
Air Force Eastern Test Range (AFETR)
Object type
Payload
Rocket body
Debris
Shape & HBR
Box + 2 Pan, 17.7 m
Radar Cross Section
36.964 m², Large (>1 m²)

Expand to show TLE details & history
Last TLE update: 14 hours ago

TLE from 14 hours ago
0 STARLINK-35810
1 66575U 25268U   26171.25257506  .00009797  00000-0  36505-3 0  9995
2 66575  43.0008 127.9987 0001003 260.8796  99.1942 15.27580072 33648
Epoch: 2026-06-20T06:03Z
TLE epoch observation values (Epoch: 2026-06-20T06:03:42.485Z)
Latitude
-0.00002°
Longitude
128.6018°
Altitude
482.934 km
Speed
7.626 km/s
True Right ascension
08h 31m 59s
True Declination
0° 00' 00"
Sunlit
Object was in daylight at epoch
Visualization orbit readout
Latitude
Unknown
Longitude
Unknown
Altitude
Unknown
Speed
Unknown
Apparent Right ascension
Unknown
Apparent Declination
Unknown
Sunlit
N/A
Visualization observer readout
Local Sidereal Time
07:16:47
Azimuth
Unknown
Elevation
Unknown
Doppler factor
Unknown
Orbital elements
Apogee altitude
485.682 km
Perigee altitude
484.306 km
Semi-major axis
6,863.131 km
Eccentricity
0.0001
Inclination
43.0008°
RAAN
127.9987°
Arg. of periapsis
260.8796°
True anomaly
99.20555°
Mean anomaly
99.1942°
Eccentric anomaly
99.19987°
Mean motion
3.81733 °/min
Orbital period
94.31 mins
BSTAR
0.00036505
Loading maneuver chart data...
Computing Atmospheric mass density...
Loading historical data...
Loading historical data...
Loading historical data...
Loading historical data...
Loading historical data...
Loading historical data...
Loading historical data...

Documentation

Showing up to 5 results
|